Location: Grambois
(43.7619°N, 5.5873°E)
Time: 17:39:42
(UTC+00:00)

Cosmos 2219 Rocket - Pass Details

Date: 07 June 2020
Orbit: 828 x 846 km, 71.0° (Epoch: 08 July)

Event Time Altitude Azimuth Distance (km) Brightness Sun altitude
Exits shadow 02:41:50 - 183° (S) 2,768 4.4 -11.1°
Reaches altitude 10° 02:42:46 10° 180° (S) 2,425 4.2 -11.0°
Maximum altitude 02:48:03 47° 108° (ESE) 1,087 3.0 -10.3°
Drops below altitude 10° 02:53:22 10° 36° (NE) 2,440 6.2 -9.6°
Sets 02:55:53 0° 31° (NNE) 3,379 7.1 -9.3°
